Weather History for Swansboro, NC

Change the Weather History Date:

Thursday, November 21, 2013

  Actual Average (KNKT) Record (KNKT)
Temperature  
Mean Temperature 58 °F -  
Max Temperature 66 °F 62 °F 75 °F (2003)
Min Temperature 51 °F 42 °F 30 °F (2000)
Degree Days  
Heating Degree Days 6    
Growing Degree Days 8 (Base 50)    
Moisture  
Dew Point 53 °F    
Average Humidity 86    
Maximum Humidity 93    
Minimum Humidity 68    
Precipitation  
Precipitation 0.03 in - - ()
Sea Level Pressure  
Sea Level Pressure 30.41 in    
Wind  
Wind Speed 8 mph (NNE)    
Max Wind Speed 12 mph    
Max Gust Speed -    
Visibility 7 miles    
Events Rain    
Averages and records for this station are not official NWS values.
T = Trace of Precipitation, MM = Missing Value Source: NWS Daily Summary

Daily Weather History Graph

Daily Weather History Graph

Search for Another Location

Airport:

Trip Planner

Search our weather history database for the weather conditions in past years. The results will help you decide how hot, cold, wet, or windy it might be!

Date:

Astronomy

Nov. 21, 2013 Rise Set
Actual Time 6:47 AM EST 4:59 PM EST
Civil Twilight 6:20 AM EST 5:27 PM EST
Nautical Twilight 5:50 AM EST 5:57 PM EST
Astronomical Twilight 5:19 AM EST 6:27 PM EST
Moon 8:33 PM EST (11/21) 9:53 AM EST (11/21)
Length of Visible Light 11h 06m
Length of Day
10h 11m
Waning Gibbous, 85% of the Moon is Illuminated
Nov 21
Waning Gibbous
Nov 25
Last Quarter
Dec 2
New
Dec 9
First Quarter
Dec 17
Full

Hourly Weather History & Observations

Time (EST) Temp. Dew Point Humidity Pressure Visibility Wind Dir Wind Speed Gust Speed Precip Events Conditions
12:57 AM 52.0 °F 45.0 °F 77% 30.39 in 10.0 mi North 9.2 mph - N/A   Overcast
1:57 AM 52.0 °F 45.0 °F 77% 30.40 in 10.0 mi North 10.4 mph - N/A   Mostly Cloudy
2:57 AM 51.1 °F 46.0 °F 83% 30.40 in 4.0 mi North 9.2 mph - 0.03 in Rain Rain
3:57 AM 51.1 °F 48.0 °F 89% 30.40 in 10.0 mi NNW 8.1 mph - 0.00 in   Overcast
4:57 AM 51.1 °F 48.0 °F 89% 30.40 in 10.0 mi North 5.8 mph - N/A   Overcast
5:57 AM 51.1 °F 48.0 °F 89% 30.40 in 10.0 mi North 10.4 mph - N/A   Overcast
6:57 AM 52.0 °F 48.9 °F 89% 30.43 in 10.0 mi NNE 6.9 mph - N/A   Mostly Cloudy
7:57 AM 53.1 °F 50.0 °F 89% 30.44 in 10.0 mi North 10.4 mph - N/A   Mostly Cloudy
8:57 AM 57.0 °F 52.0 °F 83% 30.44 in 10.0 mi NNE 9.2 mph - N/A   Mostly Cloudy
9:57 AM 61.0 °F 54.0 °F 78% 30.45 in 10.0 mi NNE 6.9 mph - N/A   Mostly Cloudy
10:57 AM 61.0 °F 54.0 °F 78% 30.45 in 10.0 mi North 11.5 mph - N/A   Mostly Cloudy
11:57 AM 62.1 °F 54.0 °F 75% 30.43 in 10.0 mi NNE 8.1 mph - N/A   Mostly Cloudy
12:57 PM 66.0 °F 55.9 °F 70% 30.41 in 10.0 mi NNE 5.8 mph - N/A   Mostly Cloudy
1:57 PM 66.9 °F 55.9 °F 68% 30.40 in 10.0 mi NE 8.1 mph - N/A   Mostly Cloudy
2:57 PM 66.0 °F 55.9 °F 70% 30.39 in 10.0 mi NE 8.1 mph - N/A   Mostly Cloudy
3:57 PM 64.9 °F 57.0 °F 75% 30.40 in 10.0 mi ENE 9.2 mph - N/A   Clear
4:57 PM 61.0 °F 55.9 °F 83% 30.40 in 10.0 mi NE 6.9 mph - N/A   Partly Cloudy
5:57 PM 59.0 °F 55.9 °F 90% 30.41 in 10.0 mi NNE 6.9 mph - N/A   Scattered Clouds
6:22 PM 59.0 °F 55.9 °F 90% 30.41 in 10.0 mi NNE 8.1 mph - N/A   Mostly Cloudy
6:57 PM 59.0 °F 55.0 °F 87% 30.42 in 10.0 mi NE 8.1 mph - N/A   Overcast
7:17 PM 57.9 °F 55.0 °F 90% 30.40 in 7.0 mi NE 8.1 mph - N/A   Overcast
7:32 PM 57.9 °F 55.0 °F 90% 30.40 in 3.0 mi NE 6.9 mph - N/A   Overcast
7:57 PM 57.0 °F 55.0 °F 93% 30.42 in 6.0 mi NNE 5.8 mph - N/A   Overcast
8:10 PM 57.0 °F 54.0 °F 89% 30.40 in 2.0 mi NE 6.9 mph - N/A   Overcast
8:33 PM 57.0 °F 55.0 °F 93% 30.41 in 1.5 mi NNE 5.8 mph - N/A   Overcast
8:57 PM 57.0 °F 55.0 °F 93% 30.42 in 1.2 mi NE 6.9 mph - N/A   Overcast
9:21 PM 57.0 °F 55.0 °F 93% 30.41 in 2.0 mi NNE 4.6 mph - N/A   Overcast
9:35 PM 57.0 °F 55.0 °F 93% 30.41 in 1.8 mi NNE 5.8 mph - N/A   Overcast
9:57 PM 57.0 °F 55.0 °F 93% 30.43 in 1.2 mi North 6.9 mph - N/A   Overcast
10:28 PM 57.0 °F 55.0 °F 93% 30.41 in 1.0 mi NE 4.6 mph - N/A   Mist
10:40 PM 57.0 °F 55.0 °F 93% 30.41 in 1.2 mi NE 4.6 mph - N/A   Overcast
10:57 PM 57.0 °F 55.0 °F 93% 30.42 in 1.2 mi NE 4.6 mph - N/A   Overcast
11:36 PM 55.9 °F 54.0 °F 93% 30.39 in 2.5 mi NNE 3.5 mph - N/A   Overcast
11:46 PM 55.9 °F 54.0 °F 93% 30.39 in 4.0 mi NNE 3.5 mph - N/A   Overcast
11:57 PM 55.9 °F 54.0 °F 93% 30.40 in 2.5 mi NNE 3.5 mph - N/A   Overcast